Regional Weather Roundup
Issued by NWS

Home | Current Version | Previous Version | Text Only | Print | Product List | Glossary On
Versions: 1 2 3 4 5 6 7 8 9 10 11 12 13 14 15 16 17 18 19 20 21 22 23 24 25 26 27 28 29 30 31 32 33 34 35 36 37 38 39 40 41 42 43 44 45 46 47 48 49 50
000
ASUS43 KMPX 281701
RWRMN
WEATHER ROUNDUP FOR MINNESOTA
NATIONAL WEATHER SERVICE TWIN CITIES/CHANHASSEN MN
1200 PM CDT THU AUG 28 2014


NOTE: "FAIR" INDICATES FEW OR NO CLOUDS BELOW 12,000 FEET WITH NO
SIGNIFICANT WEATHER AND/OR OBSTRUCTIONS TO VISIBILITY. N/A MEANS
CURRENT SKY AND/OR WEATHER CONDITIONS ARE NOT AVAILABLE.

MNZ060>063-068>070-281800-
   Twin Cities Metro

CITY           SKY/WX    TMP DP  RH WIND       PRES   REMARKS
TWIN CITIES    CLOUDY    72  60  66 SE12      30.05F
ST PAUL        CLOUDY    72  61  68 SE10      30.06F
CRYSTAL        CLOUDY    73  59  61 SE12      30.04F
BLAINE         CLOUDY    73  63  68 SE7       30.05F
LAKEVILLE      DRIZZLE   66  61  82 SE8       30.05F
EDEN PRAIRIE   CLOUDY    71  61  70 S10       30.04F
SOUTH ST PAUL  CLOUDY    71  59  66 SE8       30.06S
LAKE ELMO      FAIR      72  61  68 SE8       30.07F
$$
MNZ001>005-007-008-013>017-022>024-027-028-281800-
   Northwest Minnesota

CITY           SKY/WX    TMP DP  RH WIND       PRES   REMARKS
BEMIDJI        CLOUDY    65  59  79 SE10      30.03F
HALLOCK        MOSUNNY   70  64  83 S12       29.93F
ROSEAU         MOSUNNY   72  63  73 S17       29.97F
WARROAD        MOSUNNY   72  63  73 S9        29.98F
THIEF RVR FALL CLOUDY    66  61  82 S9        29.98F
CROOKSTON      MOSUNNY   72  64  78 S15       29.96F
FOSSTON        PTSUNNY   70  61  73 S12       30.00F
DETROIT LAKES  PTSUNNY   68  61  77 S12       30.02S
MOORHEAD       PTSUNNY   72  66  83 S13       29.98S
PARK RAPIDS    PTSUNNY   68  59  73 SE15      30.03F
MAHNOMEN       CLOUDY    69  61  76 S7G17     29.99F
$$
MNZ006-009>011-018-025>026-281800-
   North Central Minnesota

CITY           SKY/WX    TMP DP  RH WIND       PRES   REMARKS
BAUDETTE       CLOUDY    68  59  73 S13       30.00F
FLAG ISLAND    MOSUNNY   70  63  78 S12       29.97F
INTL FALLS     PTSUNNY   72  58  61 VRB6G16   30.04F
WASKISH        PTSUNNY   72  63  73 CALM      30.02F
BIG FORK       MOSUNNY   70  55  60 S9        30.05S
LONGVILLE      CLOUDY    66  61  82 SE3       30.05F
GRAND RAPIDS   PTSUNNY   70  57  64 S12G20    30.07F
CRANE LAKE     MOSUNNY   70  55  60 S6        30.08F
ORR            MOSUNNY   72  54  53 S7        30.04F
COOK           SUNNY     70  55  60 SE6       30.07F
WALKER         CLOUDY    66  59  79 S8        30.04S
$$
MNZ012-019>021-037-281800-
   Northeast Minnesota

CITY           SKY/WX    TMP DP  RH WIND       PRES   REMARKS
DULUTH         MOSUNNY   68  54  60 S7        30.10F
ELY            MOSUNNY   68  52  56 SW8       30.09F
HIBBING        MOSUNNY   72  55  55 VRB6      30.08F
EVELETH        PTSUNNY   72  54  53 S9        30.10S
DULUTH HARBOR  MOSUNNY   66  55  68 NE6       30.10F
TWO HARBORS    SUNNY     66  54  63 S9        30.09S
SILVER BAY     SUNNY     66  59  77 SE8       30.10S
GRAND MARAIS     N/A     64  56  75 E6        30.12F
G MARAIS ARPRT SUNNY     64  54  68 SE6       30.14F
$$
MNZ029>031-032-039>041-046>048-054>057-064-281800-
   West Central Minnesota

CITY           SKY/WX    TMP DP  RH WIND       PRES   REMARKS
FERGUS FALLS   CLOUDY    70  57  64 S16       29.99F
WHEATON        DRIZZLE   64  61  88 E13       29.99F
MORRIS         LGT RAIN  66  64  94 SE10      29.99S
ALEXANDRIA     CLOUDY    70  61  73 S16G22    30.03F
ELBOW LAKE     CLOUDY    67  61  81 SE9       30.00F
WADENA         CLOUDY    66  61  82 SE10      30.03S
GLENWOOD       CLOUDY    70  61  73 SE8       30.03S
APPLETON       LGT RAIN  68  63  83 SE10      29.98F
BENSON         DRIZZLE   66  63  88 S9        30.00F
ORTONVILLE     CLOUDY    64  63  94 SE8       29.98S
MADISON        LGT RAIN  68  64  88 SE9       29.98S
WILLMAR        FAIR      68  61  77 SE10      30.03S
$$
MNZ033>034-036-042>043-049>051-058-059-281800-
   Central Minnesota

CITY           SKY/WX    TMP DP  RH WIND       PRES   REMARKS
ST CLOUD       PTSUNNY   74  60  61 SE13      30.04F
SAUK CENTRE    FAIR      70  61  72 SE12G17   30.03F
PAYNESVILLE    PTSUNNY   68  60  75 E14       30.03F HAZE
AITKIN         PTSUNNY   72  61  68 SE7       30.05F
PINE RIVER     PTSUNNY   70  61  73 SE8       30.08F
BRAINERD       CLOUDY    68  59  73 SE8       30.05F
STAPLES        CLOUDY    66  59  77 SE8       30.04F
LONG PRAIRIE   CLOUDY    68  61  77 E9        30.04F
LITTLE FALLS   CLOUDY    70  59  68 SE7       30.04F
LITCHFIELD     CLOUDY    72  64  78 SE8       30.04S
BUFFALO        CLOUDY    69  59  69 SE8       30.05F
MAPLE LAKE     CLOUDY    70  63  76 SE6       30.05F
$$
MNZ037-044-045-052-053-281800-
   East Central Minnesota

CITY           SKY/WX    TMP DP  RH WIND       PRES   REMARKS
PRINCETON      PTSUNNY   73  61  64 SE9       30.06F
MORA           CLOUDY    70  59  68 SE9       30.09F
CAMBRIDGE      PTSUNNY   73  59  60 SE10      30.05F
RUSH CITY      PTSUNNY   72  59  65 SE6       30.08F
MOOSE LAKE     PTSUNNY   72  55  56 SE3       30.06F
HINCKLEY       FAIR      70  59  68 E6        30.09F
CLOQUET        MOSUNNY   70  55  60 S6        30.09F
MCGREGOR       CLOUDY    70  59  68 S8        30.07F
$$
MNZ071>073-080-081-089-090-097-098-281800-
   Southwest Minnesota

CITY           SKY/WX    TMP DP  RH WIND       PRES   REMARKS
MONTEVIDEO     DRIZZLE   66  64  94 S9        30.00S
GRANITE FALLS  LGT RAIN  67  63  89 SE12      30.01S
CANBY          LGT RAIN  65  64  95 SE6       29.99S
MARSHALL       CLOUDY    66  63  88 SE10      29.97F
REDWOOD FALLS  LGT RAIN  67  64  90 SE12G18   29.99F
OLIVIA         CLOUDY    70  63  78 SE9G16    30.01S
PIPESTONE      CLOUDY    68  66  94 S9        29.97F
WINDOM         DRIZZLE   66  64  94 SE9G17    30.00S
WORTHINGTON    CLOUDY    68  66  94 SE13      29.99F
JACKSON        CLOUDY    68  64  88 SE12      30.00F
TRACY          LGT RAIN  67  65  95 SE6       29.99S
SLAYTON        LGT RAIN  65  64  99 CALM      29.99F
$$
MNZ065>067-074>077-082>085-091>093-281800-
   South Central Minnesota

CITY           SKY/WX    TMP DP  RH WIND       PRES   REMARKS
MANKATO        CLOUDY    64  59  82 SE14      30.02F
NEW ULM        DRIZZLE   64  64 100 SE9       30.01S
ST JAMES       DRIZZLE   66  64  94 E9        30.01F
FAIRMONT       CLOUDY    64  61  88 SE14      30.00F
GLENCOE        CLOUDY    70  59  69 E10       30.03S
FARIBAULT      LGT RAIN  68  61  77 SE9       30.05F
OWATONNA       DRIZZLE   66  63  88 E9        30.03F
WASECA         DRIZZLE   63  57  82 SE7       30.05S
ALBERT LEA     LGT RAIN  64  64 100 SE8       30.03F
$$
MNZ078>079-086>088-094>096-281800-
   Southeast Minnesota

CITY           SKY/WX    TMP DP  RH WIND       PRES   REMARKS
ROCHESTER      LGT RAIN  64  61  90 SE10      30.08F FOG
RED WING       CLOUDY    72  61  68 SE9       30.05F
STANTON        DRIZZLE   68  61  77 SE6       30.04F
DODGE CENTER   LGT RAIN  64  63  94 SE9       30.06F
WINONA         CLOUDY    70  63  78 SE6       30.08F
AUSTIN         CLOUDY    64  63  94 SE8       30.05F
PRESTON        LGT RAIN  64  64 100 CALM      30.09F
$$
ABBREVIATIONS USED IN REMARKS
   TC - TEMPERATURES IN CELSIUS
  WCI - WIND CHILL INDEX
   HX - HEAT INDEX
  VSB - VISIBILITY
$$



USA.gov is the U.S. government's official web portal to all federal, state and local government web resources and services.